EHI
0 1 2 1 0 0 0 1 2 3 6 8 8 7 7 6 5 5 6 6 6 5 3 2 1 0 0 0 0 0 0 0 0 0 0 0 0 0 0 0 0 0 0
0 1 1 1 0 0 1 2 2 3 4 5 5 5 5 5 6 5 5 6 6 4 3 3 2 1 0 0 0 0 0 0 0 0 0 0 0 0 0 0 0 0 0
0 0 0 0 0 0 1 2 2 1 1 1 2 1 2 3 4 4 4 5 5 5 4 3 3 2 1 0 0 0 0 0 0 0 0 0 0 0 0 0 0 0 0
0 0 0 0 0 0 1 1 1 0 0 0 0 0 0 1 2 3 3 3 3 4 3 2 2 2 1 0 0 0 0 0 0 0 0 0 0 0 0 0 0 0 0
0 0 0 0 0 0 0 0 0 0 0 0 0 0 0 1 2 2 2 2 1 2 2 2 2 1 0 0 0 0 0 0 0 0 0 0 0 0 0 0 0 0 0
0 0 0 0 0 0 0 0 0 0 0 0 0 0 0 1 1 1 1 1 1 1 2 3 2 1 0 0 0 0 0 0 0 0 0 0 0 0 0 0 0 0 0
0 0 0 0 0 0 0 0 0 0 0 0 0 0 0 0 0 0 0 0 0 0 1 3 2 0 0 0 0 0 0 0 0 0 0 0 0 0 0 0 0 0 0
0 0 0 0 0 0 0 0 0 0 0 0 0 0 0 0 0 0 0 0 0 0 0 1 2 1 0 0 0 0 0 0 0 0 0 0 0 0 0 0 0 0 0
0 0 0 0 0 0 0 0 0 0 0 0 0 0 0 0 0 0 0 0 0 0 0 1 2 1 0 0 0 0 0 0 0 0 0 0 0 0 0 0 0 0 0
0 0 0 0 0 0 0 0 0 0 0 0 0 0 0 0 0 0 0 0 0 0 0 0 1 1 0 1 1 0 0 0 0 0 0 0 0 0 0 0 0 0 0
0 0 0 0 0 0 0 0 0 0 0 0 0 0 0 0 0 0 0 0 0 0 0 0 0 0 0 1 1 0 0 0 0 0 0 0 0 0 0 0 0 0 0
0 0 0 0 0 0 0 0 0 0 0 0 0 0 0 0 0 0 0 0 0 0 0 0 0 0 0 1 1 0 0 0 0 0 0 0 0 0 0 0 0 0 0
0 0 0 0 0 0 0 0 0 0 0 0 0 0 0 0 0 0 0 0 0 0 0 0 0 0 0 0 0 0 0 0 0 0 0 1 1 0 0 0 0 0 0
0 0 0 0 0 0 0 0 0 0 0 0 0 0 0 0 0 0 0 0 0 0 0 0 0 0 0 0 0 0 0 0 0 0 0 1 1 0 0 0 0 0 0
0 0 0 0 0 0 0 0 0 0 0 0 0 0 0 0 0 0 0 0 0 0 0 0 0 0 0 0 0 0 0 0 0 0 0 1 1 0 0 0 0 0 0
0 0 0 0 0 0 0 0 0 0 0 0 0 0 0 0 0 0 0 0 0 0 0 0 0 0 0 0 0 0 0 0 0 0 0 0 0 0 0 0 0 0 0
0 0 0 0 0 0 0 0 0 0 0 0 0 0 0 0 0 0 0 0 0 0 0 0 0 0 0 0 0 0 0 0 0 0 0 0 0 0 0 0 0 0 0
0 0 0 0 0 0 0 0 0 0 0 0 0 0 0 0 0 0 0 0 0 0 0 0 0 0 0 0 0 0 0 0 0 0 0 0 0 0 0 0 0 0 0
1 0 0 0 0 0 0 0 0 0 0 0 0 0 0 0 0 0 0 0 0 0 0 0 0 0 0 0 0 0 0 0 0 0 0 0 0 0 0 0 0 0 0
2 1 0 0 0 0 0 0 0 0 0 0 0 0 0 0 0 0 0 0 0 0 0 0 0 0 0 0 0 0 0 0 0 0 0 0 0 0 0 0 0 0 0
2 1 0 0 0 0 0 0 0 0 0 0 0 0 0 0 0 0 0 0 0 0 0 0 0 0 0 0 0 0 0 0 0 0 0 0 0 0 0 0 0 0 0
1 0 0 0 0 0 0 0 0 0 0 0 0 0 0 0 0 0 0 0 0 0 0 0 0 0 0 0 0 0 0 0 0 0 0 0 0 0 0 0 0 0 0
0 0 0 0 0 0 0 0 0 0 0 0 0 0 0 0 0 0 0 0 0 0 0 0 0 0 0 0 0 0 0 0 0 0 0 0 0 0 0 0 0 0 0
0 0 0 0 0 0 0 0 0 0 0 0 0 0 0 0 0 0 0 0 0 0 0 0 0 0 0 0 0 0 0 0 0 0 0 0 0 0 0 0 0 0 0
0 0 0 0 0 0 0 0 0 0 0 0 0 0 0 0 0 0 0 0 0 0 0 0 0 0 0 0 0 0 0 0 0 0 0 0 0 0 0 0 0 0 0
0 0 0 0 0 0 0 0 0 0 0 0 0 0 0 0 0 0 0 0 0 0 0 0 0 0 0 0 0 0 0 0 0 0 0 0 0 0 0 0 0 0 0
Wind_Speed
2 2 6 7 7 7 7 7 7 7 7 7 6 6 5 5 5 5 5 5 5 4 4 4 4 4 4 4 4 4 4 4 4 4 4 3 3 3 3 4 4 3 6
4 3 7 7 7 7 7 6 6 6 5 5 5 4 4 4 4 3 3 3 3 3 2 3 3 2 3 3 3 3 3 3 3 3 3 3 2 2 2 3 3 2 5
5 4 5 7 7 7 6 6 5 5 4 4 3 3 3 2 2 2 2 2 2 1 1 1 1 1 1 1 2 2 3 3 3 3 3 2 1 1 2 2 3 3 5
5 4 4 7 6 6 6 5 4 4 4 3 2 2 1 1 0 0 1 1 1 1 1 0 0 0 0 1 1 2 2 3 3 2 2 1 2 0 1 2 2 3 4
5 3 4 7 6 6 5 4 4 3 3 2 2 1 1 1 2 2 2 2 3 2 2 2 1 2 2 2 2 2 2 3 3 3 1 1 2 2 1 2 2 3 3
4 3 3 6 6 5 4 4 3 2 2 2 2 2 2 3 3 3 4 4 4 4 4 3 3 3 3 3 2 2 2 3 3 2 1 1 1 3 2 2 2 3 3
4 2 2 5 5 4 4 3 2 2 1 2 2 3 3 3 4 5 5 5 5 5 4 4 4 4 4 4 3 3 3 3 1 1 1 1 2 4 3 3 3 3 3
4 3 2 4 4 4 3 2 2 1 1 2 3 3 4 4 4 5 5 5 5 5 5 5 4 5 6 5 5 5 4 3 1 1 1 1 4 5 4 4 3 3 3
3 3 1 1 1 2 2 2 1 1 1 3 4 4 5 5 5 6 6 5 5 6 5 5 5 6 6 6 6 5 4 3 0 1 2 1 5 5 5 5 4 4 4
2 2 1 1 1 1 1 1 0 1 2 3 4 5 6 6 6 7 6 6 6 6 6 6 6 6 6 6 6 6 5 2 0 1 1 3 6 6 5 5 5 5 4
2 1 1 1 1 0 1 1 2 3 4 5 5 6 6 3 4 4 6 6 5 5 6 6 6 6 5 4 5 5 3 0 1 1 2 4 6 5 5 6 6 6 5
4 3 3 2 2 1 1 1 1 2 3 3 2 3 3 3 3 4 6 8 7 6 6 6 6 5 3 2 3 2 0 1 1 2 2 5 6 5 5 7 7 7 7
5 3 3 3 2 2 1 0 0 1 1 2 3 3 2 2 3 3 3 4 5 5 4 4 4 3 2 1 1 1 1 1 1 2 3 5 6 5 5 6 7 7 8
4 4 3 3 3 2 2 1 1 1 1 1 2 2 2 1 2 2 2 2 2 2 2 2 2 2 2 2 2 2 2 1 2 1 3 5 6 5 5 6 7 7 7
5 5 4 4 4 2 2 1 1 1 0 1 1 1 1 1 1 2 2 2 2 2 2 2 2 2 2 2 2 2 2 2 2 2 2 5 6 5 5 6 6 7 7
6 5 4 4 4 3 2 2 1 1 1 1 1 1 1 1 1 1 2 2 2 2 2 2 2 2 2 1 2 2 2 2 2 2 2 3 5 4 4 5 6 7 7
6 5 5 4 4 4 3 2 2 1 1 1 1 1 1 1 1 1 1 2 2 2 2 2 2 1 2 1 2 2 1 1 1 1 1 1 1 2 3 4 5 7 8
6 5 5 5 5 4 3 2 2 1 2 1 1 1 1 1 1 1 1 2 2 2 2 2 1 1 2 2 2 2 1 1 1 1 1 1 1 1 2 3 4 5 6
7 7 6 5 5 4 3 2 2 2 2 1 1 1 1 2 2 1 1 2 2 2 2 2 1 1 1 2 2 1 1 1 1 1 0 1 1 1 1 2 3 3 5
6 6 6 5 5 4 3 2 2 2 1 1 1 1 1 1 2 1 1 2 3 2 2 2 2 1 1 2 1 1 1 1 1 1 1 0 0 1 1 0 0 1 3
6 7 7 6 5 4 2 2 2 1 0 1 1 1 1 1 2 2 1 2 2 2 2 3 2 2 2 1 1 2 2 2 2 1 1 0 0 0 0 1 1 0 1
8 7 7 7 6 5 3 2 2 2 1 1 1 1 1 2 2 1 1 2 2 2 3 3 2 1 2 2 1 1 2 3 3 2 1 1 1 0 0 0 1 1 1
9 10 9 8 7 5 4 3 2 2 2 1 1 1 2 2 2 1 1 1 2 1 2 2 2 1 1 2 1 1 1 0 1 2 2 2 2 1 1 0 1 1 1
10 8 8 7 7 5 5 4 4 3 2 2 2 1 2 2 2 1 1 1 1 1 2 2 1 1 1 1 1 1 1 1 1 1 2 2 2 2 1 1 1 1 1
8 8 7 7 6 5 5 5 4 3 2 1 1 1 2 2 2 2 1 1 2 2 2 2 2 1 0 0 0 1 1 1 1 1 1 2 2 2 2 1 1 1 1
6 6 7 7 6 6 6 5 5 5 4 2 2 1 2 2 2 2 1 1 1 2 2 2 1 1 1 0 0 1 1 1 0 1 1 0 1 2 2 2 2 1 1
Wind_Direction
186 194 169 143 132 125 122 121 119 119 118 115 114 112 112 111 109 109 111 115 111 105 101 102 97 91 86 78 72 70 66 64 65 63 56 56 67 78 82 77 65 41 54
154 166 160 144 135 129 126 125 125 124 119 117 116 115 113 111 112 115 116 117 114 114 112 110 105 96 88 77 65 59 55 50 47 47 44 37 57 82 86 92 83 59 60
134 144 150 145 137 130 126 125 124 122 120 117 116 117 115 112 116 121 131 130 130 131 134 131 126 113 91 67 48 38 31 25 22 29 40 21 356 95 111 107 93 76 69
136 134 142 141 134 128 125 122 120 116 113 114 115 111 105 94 95 244 269 252 241 218 209 212 241 253 316 328 342 5 6 4 5 19 36 6 326 202 141 129 103 86 77
125 125 145 141 135 129 125 118 112 103 93 89 85 59 20 350 324 310 296 288 281 269 258 256 262 271 273 283 299 323 342 353 359 18 18 5 332 276 182 149 118 99 89
124 123 145 140 135 131 127 119 111 97 76 56 31 356 335 321 311 307 303 297 290 283 276 270 271 276 285 285 289 303 319 335 5 15 360 332 303 270 217 173 151 128 109
135 132 151 151 145 139 132 122 113 95 57 26 7 353 340 330 322 319 314 308 300 292 288 281 272 272 272 279 285 291 298 315 15 350 329 296 278 262 222 187 171 156 138
144 139 149 164 154 149 142 133 120 92 49 18 2 349 342 336 330 325 316 310 308 305 297 290 282 276 275 278 284 289 294 307 329 331 300 278 266 256 225 198 181 165 153
139 134 131 119 147 165 155 143 121 43 18 5 355 349 345 342 338 331 322 312 305 299 295 289 283 278 276 277 281 289 290 295 44 263 276 272 268 256 229 204 192 177 167
136 144 160 146 80 28 352 279 310 349 13 6 2 1 1 359 352 342 336 321 309 305 304 300 295 289 280 275 273 275 277 291 237 270 282 273 269 255 233 210 197 185 174
180 192 194 200 196 204 298 299 350 360 9 10 5 8 18 8 353 342 339 339 334 329 326 322 317 312 303 294 282 272 277 225 230 256 273 278 278 260 235 215 204 193 181
209 213 207 212 202 197 275 25 6 15 12 11 5 7 12 4 351 1 354 2 3 1 357 351 346 341 339 336 307 310 313 247 243 250 266 279 279 266 239 217 210 202 188
209 211 199 203 198 189 204 168 26 22 4 358 8 12 15 11 1 9 3 360 1 5 4 358 2 358 349 329 305 288 261 251 243 256 272 279 279 269 246 217 211 207 196
200 212 199 181 180 186 171 158 123 77 1 359 8 26 39 20 5 1 2 346 353 349 343 344 338 336 337 318 294 270 258 248 239 246 267 276 275 266 246 219 206 209 205
201 210 197 173 179 171 151 162 128 142 116 32 24 29 63 63 12 3 352 348 348 348 341 332 332 330 328 315 296 270 259 252 245 245 274 283 273 263 248 229 213 216 212
204 204 192 181 179 162 156 155 152 149 116 80 50 28 53 74 46 25 4 354 346 338 329 319 320 317 305 297 298 280 262 259 247 247 261 283 275 262 257 239 221 220 215
199 192 187 183 164 158 156 156 144 141 121 104 69 37 48 55 52 44 15 356 337 331 334 335 336 335 317 312 305 295 269 264 249 244 258 270 281 264 258 251 234 226 219
185 180 186 177 157 155 145 139 133 123 111 101 69 36 27 25 40 41 19 347 334 340 345 336 339 330 326 321 307 302 298 288 272 239 235 271 273 275 269 255 246 234 224
182 173 173 162 156 147 129 114 109 101 93 79 58 31 3 13 26 35 7 341 344 352 351 336 349 318 311 315 296 295 307 292 292 289 315 257 237 220 246 267 253 237 226
172 166 163 154 147 128 108 88 72 67 46 24 14 341 348 360 9 22 7 353 356 358 352 348 329 333 305 304 325 1 338 326 337 1 336 275 220 207 158 201 236 246 223
164 166 166 160 158 143 133 132 132 168 278 321 315 335 346 351 1 12 3 355 359 357 341 339 336 346 348 341 23 8 357 7 26 23 350 329 15 14 117 138 135 162 213
176 176 173 174 170 174 164 153 155 150 191 249 301 332 342 346 345 352 5 349 352 354 354 356 6 359 350 10 57 62 10 1 2 15 12 15 20 57 87 103 119 149 152
186 185 184 182 178 179 158 119 89 65 37 11 331 319 326 334 333 344 346 343 349 2 340 340 356 26 350 351 28 112 125 209 323 345 7 20 20 39 22 23 114 122 151
196 185 181 177 177 176 163 159 154 161 188 224 234 271 308 327 329 334 337 348 346 346 338 329 9 12 31 344 347 22 116 173 134 359 346 357 19 28 13 15 59 102 126
186 179 177 172 178 176 173 173 165 170 194 215 239 285 310 323 323 325 329 347 339 337 338 343 356 14 28 65 340 346 26 42 79 120 360 343 359 357 5 12 31 55 82
177 176 172 174 185 181 179 181 182 183 186 193 223 255 286 304 306 309 314 337 322 322 328 330 337 6 16 45 52 52 84 78 88 112 136 350 341 334 351 17 30 26 46